Date String (YYYY-MM-DD hh:mm:ss) UTC,Instrument flags,absolute air pressure of the measurement (hPa),sample flow rate (lpm),inlet stack bypass flow (lpm),air temperature of the measurement (°C),ambient temperature measured by the external sensor (°C),aerosol sample conditioner tube jacket temperature (°C),OPC LED temperature (°C),internal box temperature (°C),relative humidity of the measurement (%),span deviation,mass concentration of particles derived from Lorenz-Mie calculation of OPC scattering (μg/m³),mass concentration of particles derived from Lorenz-Mie calculation of OPC scattering (μg/m³),mass concentration of particles derived from Lorenz-Mie calculation of OPC scattering (μg/m³)
DateTimeUTC,F1_M11,P_M11,Q1_M11,Q2_M11,T1_M11,T2_M11,T3_M11,T4_M11,T5_M11,U1_M11,ZSPAN_M11,X2_M11,X0_M11,X1_M11
2024-03-21 17:00:00,SystemResetWarning,0826.0,4.99,000.00,022.0,021.5,000.0,030.3,023.8,15.2,0000.0,0003.11,0008.65,0002.55
2024-03-21 17:01:00,SystemResetWarning,0826.0,5.00,000.00,022.0,021.5,000.0,030.3,023.8,15.0,0000.0,0003.07,0008.44,0002.48
2024-03-21 17:02:00,SystemResetWarning,0826.0,5.00,000.00,022.1,021.6,000.0,030.3,023.9,14.8,0000.0,0003.09,0008.53,0002.44
2024-03-21 17:03:00,SystemResetWarning,0826.0,5.00,000.00,022.1,021.6,000.0,030.4,023.9,15.9,0000.0,0003.09,0008.79,0002.43
2024-03-21 17:04:00,SystemResetWarning,0826.0,5.01,000.00,022.1,021.6,000.0,030.4,023.9,15.4,0000.0,0003.15,0009.66,0002.48
2024-03-21 17:05:00,SystemResetWarning,0826.0,5.00,000.00,022.1,021.6,000.0,030.4,023.9,14.7,0000.0,0003.13,0009.79,0002.44
2024-03-21 17:06:00,SystemResetWarning,0826.0,5.01,000.00,022.1,021.6,000.0,030.4,023.9,14.7,0000.0,0003.12,0010.14,0002.42
2024-03-21 17:07:00,SystemResetWarning,0826.0,5.01,000.00,022.1,021.6,000.0,030.4,024.0,14.9,0000.0,0003.10,0010.42,0002.41
2024-03-21 17:08:00,SystemResetWarning,0826.0,4.99,000.00,022.1,021.7,000.0,030.4,024.0,15.1,0000.0,0003.12,0011.14,0002.42
2024-03-21 17:09:00,SystemResetWarning,0826.0,5.00,000.00,022.2,021.7,000.0,030.4,024.0,15.0,0000.0,0003.14,0011.58,0002.46
2024-03-21 17:10:00,SystemResetWarning,0826.0,5.00,000.00,022.2,021.7,000.0,030.4,024.0,14.7,0000.0,0003.14,0011.76,0002.47
2024-03-21 17:11:00,SystemResetWarning,0826.0,5.00,000.00,022.2,021.7,000.0,030.5,024.0,14.0,0000.0,0003.15,0011.83,0002.47
2024-03-21 17:12:00,SystemResetWarning,0826.0,5.00,000.00,022.2,021.7,000.0,030.5,024.0,13.7,0000.0,0003.15,0012.56,0002.46
2024-03-21 17:13:00,SystemResetWarning,0826.0,5.00,000.00,022.2,021.7,000.0,030.5,024.0,14.0,0000.0,0003.15,0011.86,0002.44
2024-03-21 17:14:00,SystemResetWarning,0826.0,5.00,000.00,022.2,021.7,000.0,030.5,024.1,14.2,0000.0,0003.16,0011.03,0002.42
2024-03-21 17:15:00,SystemResetWarning,0826.0,5.00,000.00,022.3,021.8,000.0,030.5,024.1,14.2,0000.0,0003.12,0009.89,0002.36
2024-03-21 17:16:00,SystemResetWarning,0826.0,5.00,000.00,022.3,021.8,000.0,030.5,024.1,14.3,0000.0,0003.14,0010.24,0002.37
2024-03-21 17:17:00,SystemResetWarning,0826.0,5.00,000.00,022.3,021.8,000.0,030.6,024.1,14.1,0000.0,0003.14,0010.60,0002.35
2024-03-21 17:18:00,SystemResetWarning,0826.0,5.00,000.00,022.3,021.8,000.0,030.6,024.1,14.0,0000.0,0003.15,0010.88,0002.34
2024-03-21 17:19:00,SystemResetWarning,0826.0,5.00,000.00,022.3,021.8,000.0,030.6,024.1,13.6,0000.0,0003.14,0009.89,0002.31
2024-03-21 17:20:00,SystemResetWarning,0826.0,5.00,000.00,022.3,021.8,000.0,030.6,024.2,14.1,0000.0,0003.13,0009.00,0002.29
2024-03-21 17:21:00,SystemResetWarning,0826.0,5.00,000.00,022.4,021.9,000.0,030.6,024.2,14.1,0000.0,0003.18,0008.89,0002.33
2024-03-21 17:22:00,SystemResetWarning,0825.9,5.00,000.00,022.4,021.9,000.0,030.6,024.2,13.9,0000.0,0003.20,0008.93,0002.35
2024-03-21 17:23:00,SystemResetWarning,0826.0,5.00,000.00,022.4,021.9,000.0,030.7,024.2,14.3,0000.0,0003.22,0008.22,0002.39
2024-03-21 17:24:00,SystemResetWarning,0826.0,5.00,000.00,022.4,021.9,000.0,030.7,024.2,14.6,0000.0,0003.22,0008.40,0002.43
2024-03-21 17:25:00,SystemResetWarning,0825.9,4.99,000.00,022.4,021.9,000.0,030.7,024.2,14.8,0000.0,0003.22,0008.72,0002.46
2024-03-21 17:26:00,SystemResetWarning,0825.9,4.99,000.00,022.4,021.9,000.0,030.7,024.3,14.8,0000.0,0003.24,0008.92,0002.49
2024-03-21 17:27:00,SystemResetWarning,0826.0,5.00,000.00,022.4,021.9,000.0,030.7,024.3,14.4,0000.0,0003.22,0008.81,0002.50
2024-03-21 17:28:00,SystemResetWarning,0826.0,5.00,000.00,022.5,022.0,000.0,030.7,024.3,14.0,0000.0,0003.21,0007.98,0002.53
2024-03-21 17:29:00,SystemResetWarning,0826.0,5.00,000.00,022.5,022.0,000.0,030.7,024.3,14.4,0000.0,0003.20,0007.28,0002.55
2024-03-21 17:30:00,SystemResetWarning,0826.0,5.00,000.00,022.5,022.0,000.0,030.7,024.3,14.4,0000.0,0003.20,0007.97,0002.57
2024-03-21 17:31:00,SystemResetWarning,0826.0,5.00,000.00,022.5,022.0,000.0,030.8,024.3,14.6,0000.0,0003.22,0009.09,0002.62
2024-03-21 17:32:00,SystemResetWarning,0826.0,5.01,000.00,022.5,022.0,000.0,030.8,024.3,14.9,0000.0,0003.20,0009.06,0002.63
2024-03-21 17:33:00,SystemResetWarning,0826.0,5.01,000.00,022.5,022.0,000.0,030.8,024.4,14.7,0000.0,0003.20,0009.14,0002.66
2024-03-21 17:34:00,SystemResetWarning,0825.9,5.00,000.00,022.6,022.1,000.0,030.8,024.4,15.0,0000.0,0003.21,0009.26,0002.68
2024-03-21 17:35:00,SystemResetWarning,0826.0,5.00,000.00,022.6,022.1,000.0,030.8,024.4,15.1,0000.0,0003.25,0009.26,0002.71
2024-03-21 17:36:00,SystemResetWarning,0826.0,4.99,000.00,022.6,022.1,000.0,030.8,024.4,15.4,0000.0,0003.28,0009.28,0002.73
2024-03-21 17:37:00,SystemResetWarning,0826.0,5.00,000.00,022.6,022.1,000.0,030.9,024.4,15.5,0000.0,0003.29,0009.65,0002.77
2024-03-21 17:38:00,SystemResetWarning,0826.0,5.00,000.00,022.6,022.1,000.0,030.9,024.4,15.1,0000.0,0003.32,0009.36,0002.81
2024-03-21 17:39:00,SystemResetWarning,0825.9,5.00,000.00,022.6,022.1,000.0,030.9,024.4,14.6,0000.0,0003.37,0009.51,0002.85
2024-03-21 17:40:00,SystemResetWarning,0825.9,5.00,000.00,022.7,022.2,000.0,030.9,024.5,13.6,0000.0,0003.38,0010.06,0002.86
2024-03-21 17:41:00,SystemResetWarning,0825.9,5.00,000.00,022.7,022.2,000.0,030.9,024.5,13.5,0000.0,0003.37,0009.41,0002.84
2024-03-21 17:42:00,SystemResetWarning,0825.9,5.00,000.00,022.7,022.2,000.0,030.9,024.5,13.5,0000.0,0003.36,0008.30,0002.80
2024-03-21 17:43:00,SystemResetWarning,0825.9,5.00,000.00,022.7,022.2,000.0,030.9,024.5,13.9,0000.0,0003.37,0008.29,0002.78
2024-03-21 17:44:00,SystemResetWarning,0825.9,5.00,000.00,022.7,022.2,000.0,031.0,024.5,14.3,0000.0,0003.35,0008.15,0002.76
2024-03-21 17:45:00,SystemResetWarning,0825.9,4.99,000.00,022.7,022.2,000.0,031.0,024.6,14.3,0000.0,0003.34,0008.08,0002.74
2024-03-21 17:46:00,SystemResetWarning,0825.9,5.00,000.00,022.7,022.3,000.0,031.0,024.6,14.4,0000.0,0003.31,0007.94,0002.72
2024-03-21 17:47:00,SystemResetWarning,0825.9,5.00,000.00,022.8,022.3,000.0,031.0,024.6,14.5,0000.0,0003.29,0007.63,0002.70
2024-03-21 17:48:00,SystemResetWarning,0825.9,5.00,000.00,022.8,022.3,000.0,031.0,024.6,13.9,0000.0,0003.25,0007.08,0002.63
2024-03-21 17:49:00,SystemResetWarning,0825.9,5.00,000.00,022.8,022.3,000.0,031.0,024.6,13.4,0000.0,0003.24,0007.02,0002.57
2024-03-21 17:50:00,SystemResetWarning,0825.9,5.00,000.00,022.8,022.3,000.0,031.1,024.6,13.9,0000.0,0003.21,0007.03,0002.50
2024-03-21 17:51:00,SystemResetWarning,0825.9,5.00,000.00,022.8,022.3,000.0,031.1,024.6,13.9,0000.0,0003.20,0006.11,0002.49
2024-03-21 17:52:00,SystemResetWarning,0825.9,5.00,000.00,022.8,022.4,000.0,031.1,024.7,13.6,0000.0,0003.19,0005.76,0002.49
2024-03-21 17:53:00,SystemResetWarning,0825.9,5.00,000.00,022.9,022.4,000.0,031.1,024.7,13.8,0000.0,0003.18,0005.78,0002.48
2024-03-21 17:54:00,SystemResetWarning,0825.9,5.01,000.00,022.9,022.4,000.0,031.1,024.7,14.0,0000.0,0003.18,0007.18,0002.49
2024-03-21 17:55:00,SystemResetWarning,0825.9,5.01,000.00,022.9,022.4,000.0,031.1,024.7,13.6,0000.0,0003.18,0007.24,0002.48
2024-03-21 17:56:00,SystemResetWarning,0825.9,5.00,000.00,022.9,022.4,000.0,031.2,024.7,13.7,0000.0,0003.15,0006.96,0002.46
2024-03-21 17:57:00,SystemResetWarning,0825.9,4.99,000.00,022.9,022.4,000.0,031.2,024.7,14.0,0000.0,0003.17,0007.68,0002.45
2024-03-21 17:58:00,SystemResetWarning,0825.9,5.00,000.00,022.9,022.5,000.0,031.2,024.8,14.2,0000.0,0003.17,0007.95,0002.45
2024-03-21 17:59:00,SystemResetWarning,0825.9,5.01,000.00,023.0,022.5,000.0,031.2,024.8,14.1,0000.0,0003.18,0008.24,0002.46
